sat.trackr.live / text

‹ back to catalog

STARLINK-35664

NORAD 66223 · 2025-244T

PAYLOAD ACTIVE UNKNOWN

§ Identity

Operator
Country
US
Launch date
2025-10-28
Launch site
AFWTR
Launch vehicle
Mass (kg)
RCS (m²)

Purposes: comms

External: N2YO · Heavens-Above · Gunter

§ Orbital elements

Epoch: 2026-09-20T14:22:23.759904Z

Period
93.85 min
Inclination
53.1585°
Eccentricity
0.0001620
Mean motion
15.34410071 rev/d
Perigee alt
461.6 km
Apogee alt
463.8 km
Semi-major
6,840.8 km
B*
7.7788e-4
RAAN
42.9649°
Arg perigee
138.4625°
Mean anomaly
221.6501°
Rev number
5,152

§ Raw data

STARLINK-356641 66223U 25244T   26263.59888611  .00026006  00000+0  77788-3 0  99942 66223  53.1585  42.9649 0001620 138.4625 221.6501 15.34410071 51526

JSON: /api/v1/satellites/66223 · /tle

For live sub-satellite position, see the globe view (requires WebGL).

§ Visibility from observer

Set your observer location to see the next 7 days of passes ≥ 10°. The values pass through the URL so the page stays shareable.

No JS? Fill the form by hand. The geolocation button needs JavaScript.